sat.trackr.live / text

‹ back to catalog

STARLINK-2455

NORAD 48117 · 2021-027AB

PAYLOAD ACTIVE UNKNOWN

§ Identity

Operator
Country
US
Launch date
2021-04-07
Launch site
AFETR
Launch vehicle
Mass (kg)
RCS (m²)

Purposes: comms

External: N2YO · Heavens-Above · Gunter

§ Orbital elements

Epoch: 2026-05-25T01:19:32.019744Z

Period
94.01 min
Inclination
53.1598°
Eccentricity
0.0001164
Mean motion
15.31709395 rev/d
Perigee alt
469.9 km
Apogee alt
471.5 km
Semi-major
6,848.8 km
B*
2.0198e-5
RAAN
157.3067°
Arg perigee
58.6509°
Mean anomaly
301.4607°
Rev number
28,438

§ Raw data

STARLINK-24551 48117U 21027AB  26145.05523171  .00000262  00000+0  20198-4 0  99982 48117  53.1598 157.3067 0001164  58.6509 301.4607 15.31709395284387

JSON: /api/v1/satellites/48117 · /tle

For live sub-satellite position, see the globe view (requires WebGL).

§ Visibility from observer

Set your observer location to see the next 7 days of passes ≥ 10°. The values pass through the URL so the page stays shareable.

No JS? Fill the form by hand. The geolocation button needs JavaScript.